Location: Armagh
(54.3500°N, 6.6670°W)
Time: 12:00:14
(UTC+01:00)

ISS - Pass Details

Date: 10 December 2017
Orbit: 402 x 407 km, 51.6° (Epoch: 24 May)

Event Time Altitude Azimuth Distance (km) Brightness Sun altitude
Rises 19:37:18 0° 276° (W) 2,365 1.3 -29.7°
Reaches altitude 10° 19:39:54 10° 255° (WSW) 1,495 -0.1 -30.1°
Enters shadow 19:40:30 13° 247° (WSW) 1,345 -0.5 -30.2°
